Terug naar catalogus

PEGASUS DEB

ActiefPO
NORAD 24973·DEBRIS·🇺🇸 United States

Gelanceerd May 19, 1994 vanaf Vandenberg Space Force Base

Loading…

Volgende Passages (komende 24 uur)

TLE

VersSource: Space-Track

Epoch: Sep 13, 2026, 12:35 UTC

1 24973U 94029ACF 26256.52486437  .00001537  00000-0  31586-3 0  9991
2 24973  82.0158 323.2312 0292441 240.3294 186.0243 14.36578891561528

Volg PEGASUS DEB in realtime met AllMySat

Download on the App Store